When you browse on this site, cookies collect data to enhance your experience and personalize the content and advertising you see.
Visit our Privacy Policy to learn more. By continuing to use the site, you agree to this use of cookies and data.
  • In Deutschland
  • Länderverzeichnis
  • Für 7 Tage
  • Wassertemperatur
  • Wetterkarte
  • Widgets
  • user-avatar
    Anmelden

    Stündliche Wetter Preston

    Heute, 15 Oktober, Dienstag

    Zeit Temperatur Niederschläge Wind Luftdruck Luftfeuchtigkeit
    00:00 +10°C° 0 mm 2 m/S 749 mmHg 92%
    01:00 +10°C° 0.2 mm 2 m/S 749 mmHg 93%
    02:00 +10°C° 0.2 mm 2 m/S 749 mmHg 93%
    03:00 +11°C° 0.2 mm 1 m/S 748 mmHg 93%
    04:00 +11°C° 0 mm 1 m/S 749 mmHg 93%
    05:00 +11°C° 0 mm 1 m/S 749 mmHg 93%
    06:00 +11°C° 0 mm 1 m/S 749 mmHg 92%
    07:00 +11°C° 0 mm 1 m/S 749 mmHg 90%
    08:00 +12°C° 0 mm 1 m/S 749 mmHg 88%
    09:00 +12°C° 0 mm 1 m/S 749 mmHg 86%
    10:00 +13°C° 0 mm 2 m/S 749 mmHg 84%
    11:00 +13°C° 0 mm 2 m/S 749 mmHg 82%
    12:00 +14°C° 0 mm 2 m/S 749 mmHg 80%
    13:00 +14°C° 0 mm 2 m/S 749 mmHg 80%
    14:00 +15°C° 0 mm 2 m/S 748 mmHg 79%
    15:00 +14°C° 0 mm 3 m/S 748 mmHg 79%
    16:00 +13°C° 0 mm 3 m/S 748 mmHg 83%
    17:00 +12°C° 0 mm 3 m/S 748 mmHg 87%
    18:00 +11°C° 0 mm 3 m/S 748 mmHg 91%
    19:00 +11°C° 0 mm 3 m/S 748 mmHg 91%
    20:00 +11°C° 0 mm 3 m/S 749 mmHg 92%
    21:00 +10°C° 0 mm 3 m/S 749 mmHg 93%
    22:00 +10°C° 0 mm 3 m/S 748 mmHg 92%
    23:00 +10°C° 0 mm 4 m/S 748 mmHg 90%

    Morgen, 16 Oktober, Mittwoch

    Zeit Temperatur Niederschläge Wind Luftdruck Luftfeuchtigkeit
    00:00 +8°C° 0 mm 4 m/S 747 mmHg 89%
    01:00 +9°C° 0.1 mm 5 m/S 746 mmHg 89%
    02:00 +9°C° 0.1 mm 5 m/S 745 mmHg 89%
    03:00 +9°C° 0.1 mm 6 m/S 745 mmHg 89%
    04:00 +10°C° 1.1 mm 6 m/S 744 mmHg 90%
    05:00 +10°C° 1.1 mm 6 m/S 744 mmHg 92%
    06:00 +10°C° 1.1 mm 6 m/S 743 mmHg 93%
    07:00 +11°C° 0.4 mm 6 m/S 743 mmHg 93%
    08:00 +11°C° 0.4 mm 6 m/S 744 mmHg 92%
    09:00 +11°C° 0.4 mm 6 m/S 744 mmHg 91%
    10:00 +11°C° 0 mm 7 m/S 744 mmHg 87%
    11:00 +11°C° 0 mm 7 m/S 745 mmHg 83%
    12:00 +11°C° 0 mm 8 m/S 746 mmHg 78%
    13:00 +11°C° 0.1 mm 7 m/S 746 mmHg 77%
    14:00 +11°C° 0.1 mm 7 m/S 747 mmHg 75%
    15:00 +11°C° 0.1 mm 7 m/S 747 mmHg 73%
    16:00 +10°C° 0 mm 6 m/S 748 mmHg 77%
    17:00 +9°C° 0 mm 5 m/S 748 mmHg 80%
    18:00 +8°C° 0 mm 4 m/S 749 mmHg 83%
    19:00 +8°C° 0 mm 4 m/S 749 mmHg 83%
    20:00 +7°C° 0 mm 4 m/S 749 mmHg 83%
    21:00 +7°C° 0 mm 4 m/S 750 mmHg 83%
    22:00 +8°C° 0 mm 3 m/S 750 mmHg 84%
    23:00 +8°C° 0 mm 3 m/S 750 mmHg 85%

    übermorgen, 17 Oktober, Donnerstag

    Zeit Temperatur Niederschläge Wind Luftdruck Luftfeuchtigkeit
    00:00 +7°C° 0 mm 3 m/S 750 mmHg 86%
    01:00 +6°C° 0 mm 4 m/S 750 mmHg 87%
    02:00 +6°C° 0 mm 4 m/S 750 mmHg 88%
    03:00 +5°C° 0 mm 4 m/S 750 mmHg 89%
    04:00 +5°C° 0 mm 4 m/S 750 mmHg 89%
    05:00 +6°C° 0 mm 4 m/S 750 mmHg 89%
    06:00 +6°C° 0 mm 4 m/S 750 mmHg 89%
    07:00 +7°C° 0 mm 5 m/S 749 mmHg 86%
    08:00 +8°C° 0 mm 5 m/S 749 mmHg 83%
    09:00 +9°C° 0 mm 6 m/S 749 mmHg 80%
    10:00 +10°C° 0.1 mm 6 m/S 749 mmHg 78%
    11:00 +10°C° 0.1 mm 7 m/S 749 mmHg 75%
    12:00 +11°C° 0.1 mm 7 m/S 749 mmHg 73%
    13:00 +11°C° 0.3 mm 7 m/S 749 mmHg 74%
    14:00 +11°C° 0.3 mm 7 m/S 748 mmHg 74%
    15:00 +11°C° 0.3 mm 7 m/S 748 mmHg 75%
    16:00 +11°C° 0.4 mm 6 m/S 748 mmHg 78%
    17:00 +10°C° 0.4 mm 6 m/S 748 mmHg 81%
    18:00 +9°C° 0.4 mm 5 m/S 748 mmHg 84%
    19:00 +9°C° 0.2 mm 5 m/S 748 mmHg 84%
    20:00 +9°C° 0.2 mm 5 m/S 748 mmHg 84%
    21:00 +9°C° 0.2 mm 6 m/S 748 mmHg 84%
    22:00 +9°C° 0.1 mm 6 m/S 747 mmHg 84%
    23:00 +9°C° 0.1 mm 6 m/S 747 mmHg 84%

    18 Oktober, Freitag

    Zeit Temperatur Niederschläge Wind Luftdruck Luftfeuchtigkeit
    00:00 +9°C° 0.1 mm 6 m/S 747 mmHg 84%
    01:00 +8°C° 0.6 mm 6 m/S 746 mmHg 85%
    02:00 +8°C° 0.6 mm 6 m/S 746 mmHg 85%
    03:00 +8°C° 0.6 mm 6 m/S 746 mmHg 86%
    04:00 +8°C° 1.6 mm 5 m/S 745 mmHg 88%
    05:00 +8°C° 1.6 mm 5 m/S 745 mmHg 90%
    06:00 +8°C° 1.6 mm 5 m/S 745 mmHg 92%
    07:00 +8°C° 0.7 mm 5 m/S 745 mmHg 89%
    08:00 +9°C° 0.7 mm 5 m/S 745 mmHg 86%
    09:00 +9°C° 0.7 mm 5 m/S 746 mmHg 83%
    10:00 +10°C° 0.3 mm 5 m/S 746 mmHg 79%
    11:00 +10°C° 0.3 mm 6 m/S 746 mmHg 74%
    12:00 +11°C° 0.3 mm 7 m/S 747 mmHg 70%
    13:00 +11°C° 0.1 mm 7 m/S 746 mmHg 70%
    14:00 +11°C° 0.1 mm 6 m/S 746 mmHg 70%
    15:00 +11°C° 0.1 mm 6 m/S 746 mmHg 70%
    16:00 +10°C° 0.3 mm 6 m/S 746 mmHg 74%
    17:00 +10°C° 0.3 mm 6 m/S 746 mmHg 77%
    18:00 +9°C° 0.3 mm 5 m/S 746 mmHg 81%
    19:00 +9°C° 0.2 mm 5 m/S 746 mmHg 83%
    20:00 +8°C° 0.2 mm 5 m/S 746 mmHg 85%
    21:00 +8°C° 0.2 mm 5 m/S 746 mmHg 87%
    22:00 +8°C° 0.1 mm 5 m/S 746 mmHg 87%
    23:00 +8°C° 0.1 mm 4 m/S 745 mmHg 87%

    19 Oktober, Samstag

    Zeit Temperatur Niederschläge Wind Luftdruck Luftfeuchtigkeit
    00:00 +7°C° 0.1 mm 4 m/S 745 mmHg 88%
    01:00 +7°C° 0 mm 4 m/S 745 mmHg 88%
    02:00 +7°C° 0 mm 4 m/S 745 mmHg 88%
    03:00 +7°C° 0 mm 4 m/S 744 mmHg 88%
    04:00 +6°C° 0 mm 4 m/S 744 mmHg 88%
    05:00 +6°C° 0 mm 4 m/S 744 mmHg 89%
    06:00 +6°C° 0 mm 4 m/S 743 mmHg 89%
    07:00 +7°C° 0 mm 5 m/S 743 mmHg 88%
    08:00 +8°C° 0 mm 5 m/S 743 mmHg 87%
    09:00 +8°C° 0 mm 5 m/S 743 mmHg 86%
    10:00 +9°C° 0.3 mm 5 m/S 743 mmHg 82%
    11:00 +10°C° 0.3 mm 5 m/S 743 mmHg 79%
    12:00 +12°C° 0.3 mm 5 m/S 743 mmHg 76%
    13:00 +10°C° 0.8 mm 5 m/S 743 mmHg 78%
    14:00 +10°C° 0.8 mm 5 m/S 743 mmHg 81%
    15:00 +9°C° 0.8 mm 5 m/S 743 mmHg 83%
    16:00 +10°C° 0.5 mm 4 m/S 743 mmHg 84%
    17:00 +10°C° 0.5 mm 4 m/S 743 mmHg 85%
    18:00 +10°C° 0.5 mm 4 m/S 743 mmHg 85%
    19:00 +9°C° 0.4 mm 3 m/S 744 mmHg 86%
    20:00 +9°C° 0.4 mm 3 m/S 744 mmHg 87%
    21:00 +9°C° 0.4 mm 3 m/S 745 mmHg 88%
    22:00 +9°C° 0.2 mm 3 m/S 745 mmHg 89%
    23:00 +8°C° 0.2 mm 3 m/S 745 mmHg 90%

    20 Oktober, Sonntag

    Zeit Temperatur Niederschläge Wind Luftdruck Luftfeuchtigkeit
    00:00 +8°C° 0.2 mm 2 m/S 745 mmHg 91%
    01:00 +8°C° 0 mm 2 m/S 746 mmHg 91%
    02:00 +8°C° 0 mm 2 m/S 746 mmHg 91%
    03:00 +8°C° 0 mm 2 m/S 746 mmHg 91%
    04:00 +7°C° 0 mm 2 m/S 747 mmHg 91%
    05:00 +7°C° 0 mm 2 m/S 747 mmHg 91%
    06:00 +7°C° 0 mm 2 m/S 748 mmHg 91%
    07:00 +7°C° 0 mm 2 m/S 748 mmHg 89%
    08:00 +8°C° 0 mm 2 m/S 749 mmHg 88%
    09:00 +9°C° 0 mm 2 m/S 749 mmHg 86%
    10:00 +10°C° 0 mm 2 m/S 750 mmHg 83%
    11:00 +10°C° 0 mm 3 m/S 750 mmHg 80%
    12:00 +11°C° 0 mm 3 m/S 751 mmHg 77%
    13:00 +11°C° 0.1 mm 3 m/S 751 mmHg 77%
    14:00 +11°C° 0.1 mm 4 m/S 752 mmHg 77%
    15:00 +11°C° 0.1 mm 4 m/S 752 mmHg 77%
    16:00 +10°C° 0 mm 3 m/S 753 mmHg 79%
    17:00 +9°C° 0 mm 3 m/S 754 mmHg 82%
    18:00 +8°C° 0 mm 2 m/S 754 mmHg 84%
    19:00 +8°C° 0 mm 2 m/S 755 mmHg 85%
    20:00 +8°C° 0 mm 2 m/S 756 mmHg 85%
    21:00 +7°C° 0 mm 2 m/S 756 mmHg 86%
    22:00 +7°C° 0 mm 2 m/S 757 mmHg 85%
    23:00 +7°C° 0 mm 2 m/S 757 mmHg 85%
    Mehr zeigen